GW5290 Weather Reports


time (UTC)temp
F
wind
direction
speed
knots
gust
knots
rain 1hr
in
rain 24hr
in
rain mn
in
humidity
%
barometer
mb
20260508024008 46 340 0.0 0.9 0.00 0.10 0.10 51 1006.5
20260508023508 46 344 0.0 2.6 0.00 0.10 0.10 50 1006.5
20260508023026 46 313 0.0 2.6 0.00 0.10 0.10 50 1006.4
20260508022511 47 34 0.0 2.6 0.00 0.10 0.10 51 1006.3
20260508022014 47 352 0.0 2.6 0.00 0.10 0.10 50 1006.3
20260508021528 47 352 0.0 1.7 0.00 0.10 0.10 48 1006.3
20260508021007 47 268 0.0 2.6 0.00 0.10 0.10 49 1006.2
20260508020510 47 351 0.0 5.2 0.00 0.10 0.10 50 1006.3
20260508020028 47 323 0.0 5.2 0.00 0.10 0.10 49 1006.2
20260508015506 48 301 0.9 5.2 0.00 0.10 0.10 49 1006.1
20260508015009 48 27 0.9 4.3 0.00 0.10 0.10 49 1006.1
20260508014532 48 324 0.9 4.3 0.00 0.11 0.10 48 1006.0
20260508014007 49 24 0.9 3.5 0.00 0.11 0.10 48 1006.0
20260508013508 49 331 0.0 2.6 0.00 0.11 0.10 47 1006.0
20260508013033 49 348 0.0 2.6 0.00 0.11 0.10 47 1006.0
20260508012508 49 340 0.0 2.6 0.00 0.12 0.10 47 1005.9
20260508012010 50 5 0.9 3.5 0.00 0.12 0.10 46 1005.8
20260508011531 50 17 0.9 7.0 0.00 0.12 0.10 46 1005.8
20260508011015 50 281 2.6 7.0 0.00 0.12 0.10 47 1005.6
20260508010510 50 16 0.9 3.5 0.00 0.12 0.10 45 1005.6
20260508010028 50 360 0.9 3.5 0.00 0.12 0.10 46 1005.5
20260508005509 50 30 0.9 5.2 0.00 0.12 0.10 45 1005.5
20260508005011 51 25 0.9 6.1 0.00 0.13 0.10 46 1005.3
20260508004539 51 352 1.7 7.0 0.00 0.13 0.10 45 1005.2
20260508004013 51 16 1.7 7.0 0.00 0.13 0.10 44 1005.1
20260508003511 52 5 1.7 4.3 0.00 0.13 0.10 44 1005.0
20260508003018 52 22 1.7 3.5 0.00 0.13 0.10 45 1004.9
20260508002507 52 352 1.7 3.5 0.00 0.13 0.10 42 1004.9
20260508002018 53 16 0.9 3.5 0.00 0.13 0.10 42 1004.8
20260508001530 53 360 0.9 3.5 0.00 0.13 0.10 41 1004.7
20260508001009 54 319 0.0 1.7 0.00 0.13 0.10 41 1004.6
20260508000514 54 352 0.0 7.0 0.00 0.13 0.10 41 1004.6
20260508000021 54 333 0.9 7.0 0.00 0.13 0.10 40 1004.6
20260507235509 55 19 0.9 4.3 0.00 0.13 0.10 40 1004.6
20260507235008 55 336 0.9 3.5 0.00 0.13 0.10 39 1004.6
20260507234523 55 40 0.0 3.5 0.00 0.13 0.10 37 1004.5
20260507234008 56 12 0.0 4.3 0.00 0.13 0.10 37 1004.4
20260507233517 56 317 0.0 7.0 0.00 0.13 0.10 37 1004.4
20260507233020 56 261 0.0 7.0 0.00 0.13 0.10 39 1004.3
20260507232512 56 22 0.9 4.3 0.00 0.13 0.10 37 1004.3
20260507232015 57 279 0.9 4.3 0.00 0.13 0.10 37 1004.2
20260507231523 57 316 0.0 4.3 0.00 0.13 0.10 36 1004.1
20260507231009 57 22 0.9 4.3 0.00 0.13 0.10 36 1003.9
20260507230508 57 343 0.9 4.3 0.00 0.13 0.10 34 1003.8
20260507230026 57 325 0.9 3.5 0.00 0.13 0.10 36 1003.7
20260507225508 58 223 0.9 4.3 0.00 0.13 0.10 36 1003.5
20260507225010 58 5 1.7 8.7 0.00 0.13 0.10 35 1003.5
20260507224523 59 182 1.7 8.7 0.00 0.13 0.10 36 1003.5
20260507224009 59 279 0.9 6.1 0.00 0.13 0.10 34 1003.4
20260507223516 59 321 1.7 5.2 0.00 0.13 0.10 35 1003.4
20260507223026 60 319 1.7 7.0 0.00 0.14 0.10 36 1003.4
20260507222508 60 317 0.9 7.8 0.00 0.14 0.10 36 1003.3
20260507222011 60 294 2.6 11.3 0.00 0.14 0.10 34 1003.3
20260507221530 60 288 1.7 11.3 0.00 0.14 0.10 33 1003.2
20260507221013 60 247 2.6 11.3 0.00 0.14 0.10 32 1003.3
20260507220514 60 265 3.5 11.3 0.00 0.15 0.10 33 1003.2
20260507220024 61 254 4.3 11.3 0.00 0.15 0.10 32 1003.1
20260507215514 61 222 1.7 12.2 0.00 0.15 0.10 32 1003.2
20260507215011 61 295 5.2 12.2 0.00 0.16 0.10 33 1003.1
20260507214527 61 304 2.6 8.7 0.00 0.16 0.10 30 1003.2
20260507214008 61 240 3.5 9.6 0.00 0.16 0.10 31 1003.3
20260507213505 61 248 3.5 9.6 0.00 0.17 0.10 30 1003.2
20260507213011 61 178 4.3 13.0 0.00 0.18 0.10 33 1003.1
20260507212505 61 304 2.6 13.0 0.00 0.18 0.10 31 1003.1
20260507212004 61 352 3.5 8.7 0.00 0.18 0.10 31 1003.2
20260507211507 62 333 2.6 9.6 0.00 0.19 0.10 30 1003.2
20260507211006 62 230 5.2 11.3 0.00 0.22 0.10 32 1003.1
20260507210503 62 223 1.7 11.3 0.00 0.23 0.10 32 1003.0
20260507210009 62 295 4.3 11.3 0.00 0.26 0.10 30 1003.0
20260507205508 62 325 2.6 11.3 0.00 0.26 0.10 30 1002.9
20260507205003 62 256 3.5 12.2 0.00 0.27 0.10 32 1003.0
20260507204510 63 247 0.9 12.2 0.00 0.27 0.10 32 1003.0
20260507204005 63 206 2.6 10.4 0.00 0.28 0.10 32 1002.9
20260507203504 64 231 3.5 8.7 0.00 0.28 0.10 32 1002.9
20260507203019 64 236 0.9 13.9 0.00 0.28 0.10 32 1002.9
20260507202503 64 252 4.3 13.9 0.00 0.29 0.10 31 1003.0
20260507202003 64 217 5.2 9.6 0.00 0.29 0.10 32 1002.8
20260507201511 63 248 2.6 15.6 0.00 0.29 0.10 34 1003.1
20260507201006 63 235 6.1 15.6 0.00 0.29 0.10 31 1002.9
20260507200503 63 257 2.6 14.8 0.00 0.29 0.10 31 1002.9
20260507200010 63 259 2.6 14.8 0.00 0.30 0.10 31 1002.9
20260507195503 64 261 5.2 13.9 0.00 0.30 0.10 30 1002.9
20260507195003 65 222 3.5 13.9 0.00 0.31 0.10 33 1002.9
20260507194516 65 287 2.6 8.7 0.00 0.34 0.10 30 1002.9
20260507194004 64 49 2.6 11.3 0.00 0.35 0.10 29 1002.7
20260507193504 65 238 7.0 13.9 0.00 0.35 0.10 32 1003.0
20260507193017 65 266 5.2 13.9 0.00 0.36 0.10 29 1003.1
20260507192503 65 196 1.7 14.8 0.00 0.36 0.10 33 1003.1
20260507192006 65 260 3.5 14.8 0.00 0.36 0.10 35 1003.1
20260507191515 64 284 3.5 9.6 0.00 0.37 0.10 33 1003.2
20260507191003 64 333 1.7 12.2 0.00 0.38 0.10 34 1003.2
20260507190506 64 261 5.2 12.2 0.00 0.38 0.10 37 1003.2
20260507190016 64 202 2.6 12.2 0.00 0.39 0.10 36 1003.1
20260507185507 64 128 3.5 12.2 0.00 0.39 0.10 38 1003.1
20260507185007 64 323 1.7 10.4 0.00 0.39 0.10 39 1003.1
20260507184518 64 313 2.6 13.0 0.00 0.40 0.10 42 1003.1
20260507184003 64 241 5.2 16.5 0.00 0.40 0.10 42 1003.0
20260507183507 64 220 6.1 16.5 0.00 0.40 0.10 43 1003.1
20260507183015 64 235 3.5 11.3 0.00 0.40 0.10 44 1003.1
20260507182503 64 281 4.3 11.3 0.00 0.40 0.10 44 1003.2
20260507182007 64 231 4.3 12.2 0.00 0.40 0.10 44 1003.2
20260507181512 64 274 2.6 12.2 0.00 0.40 0.10 44 1003.2
20260507181006 64 206 4.3 10.4 0.00 0.40 0.10 45 1003.2
20260507180509 64 255 3.5 9.6 0.00 0.40 0.10 43 1003.3
20260507180018 64 352 2.6 9.6 0.00 0.40 0.10 43 1003.4
20260507175503 64 323 1.7 15.6 0.00 0.40 0.10 44 1003.4
20260507175006 63 251 3.5 15.6 0.00 0.40 0.10 50 1003.5
20260507174523 62 209 7.0 14.8 0.00 0.40 0.10 48 1003.6
20260507174005 61 275 0.9 10.4 0.00 0.40 0.10 50 1003.6
20260507173506 60 251 2.6 9.6 0.00 0.40 0.10 50 1003.7
20260507173008 60 71 2.6 11.3 0.00 0.40 0.10 51 1003.8
20260507172508 59 216 3.5 11.3 0.00 0.40 0.10 57 1003.9
20260507172008 59 234 0.9 2.6 0.00 0.40 0.10 66 1003.7
20260507171503 58 308 0.9 3.5 0.00 0.40 0.10 65 1003.8
20260507171009 58 162 1.7 3.5 0.00 0.40 0.10 67 1003.9
20260507170508 57 107 0.0 1.7 0.00 0.40 0.10 65 1004.0
20260507170004 57 150 0.9 2.6 0.00 0.40 0.10 66 1004.0
20260507165507 57 19 0.0 4.3 0.00 0.40 0.10 66 1004.2
20260507165011 57 226 1.7 4.3 0.00 0.40 0.10 65 1004.3
20260507164504 57 194 0.9 3.5 0.00 0.40 0.10 66 1004.3
20260507164006 57 189 0.9 3.5 0.00 0.40 0.10 66 1004.3
20260507163507 58 175 0.9 4.3 0.00 0.40 0.10 66 1004.3
20260507163009 58 153 0.0 4.3 0.00 0.40 0.10 67 1004.3
20260507162509 58 186 0.9 4.3 0.00 0.40 0.10 67 1004.3
20260507162010 59 175 1.7 4.3 0.00 0.40 0.10 68 1004.4
20260507161508 59 190 0.9 3.5 0.00 0.40 0.10 64 1004.4
20260507161008 59 169 0.9 6.1 0.00 0.40 0.10 63 1004.5
20260507160507 60 189 1.7 6.1 0.00 0.40 0.10 61 1004.6
20260507160007 61 241 2.6 5.2 0.00 0.40 0.10 58 1004.6
20260507155515 62 5 0.9 7.0 0.00 0.40 0.10 48 1004.7
20260507155011 63 238 1.7 7.0 0.00 0.40 0.10 48 1004.8
20260507154506 63 90 1.7 8.7 0.00 0.40 0.10 50 1004.7
20260507154011 62 268 3.5 8.7 0.00 0.40 0.10 48 1004.9
20260507153505 62 284 1.7 10.4 0.00 0.40 0.10 49 1004.9
20260507153018 63 337 5.2 10.4 0.00 0.40 0.10 46 1005.0
20260507152508 63 352 1.7 7.0 0.00 0.40 0.10 47 1004.9
20260507152013 62 202 1.7 7.0 0.00 0.40 0.10 51 1005.0
20260507151518 61 263 2.6 7.0 0.00 0.40 0.10 57 1005.0
20260507151008 61 235 1.7 7.0 0.00 0.40 0.10 51 1004.9
20260507150509 61 9 0.9 6.1 0.00 0.40 0.10 54 1005.0
20260507150033 61 252 2.6 6.1 0.00 0.40 0.10 57 1005.0
20260507145510 61 233 0.9 7.0 0.00 0.40 0.10 54 1004.9
20260507145012 60 297 1.7 7.0 0.00 0.40 0.10 62 1005.0
20260507144518 60 333 1.7 8.7 0.00 0.40 0.10 56 1005.0
20260507144010 59 24 0.0 10.4 0.00 0.40 0.10 59 1005.0
20260507143512 59 263 3.5 10.4 0.00 0.40 0.10 57 1005.0
20260507143016 60 253 1.7 8.7 0.00 0.40 0.10 58 1005.0
20260507142506 59 205 0.9 9.6 0.00 0.40 0.10 60 1005.2
20260507142013 59 242 5.2 9.6 0.00 0.40 0.10 59 1005.4
20260507141517 59 238 1.7 5.2 0.00 0.40 0.10 60 1005.4
20260507141008 59 323 0.9 5.2 0.00 0.40 0.10 59 1005.3
20260507140509 59 238 0.9 5.2 0.00 0.40 0.10 60 1005.4
20260507140017 59 335 1.7 5.2 0.00 0.40 0.10 59 1005.4
20260507135506 58 41 0.9 7.8 0.00 0.40 0.10 63 1005.4
20260507135006 58 229 0.9 7.8 0.00 0.40 0.10 61 1005.4
20260507134520 58 109 0.9 9.6 0.00 0.40 0.10 62 1005.4
20260507134005 58 233 4.3 9.6 0.00 0.40 0.10 63 1005.5
20260507133509 58 322 0.9 6.1 0.00 0.40 0.10 68 1005.6
20260507133021 57 193 0.9 4.3 0.00 0.40 0.10 69 1005.6
20260507132516 56 5 0.9 7.0 0.00 0.40 0.10 67 1005.5
20260507132009 56 21 1.7 11.3 0.00 0.40 0.10 66 1005.6
20260507131519 56 31 2.6 11.3 0.00 0.40 0.10 65 1005.6
20260507131009 55 352 1.7 8.7 0.00 0.40 0.10 67 1005.6
20260507130510 55 308 3.5 8.7 0.00 0.40 0.10 68 1005.6
20260507130019 55 5 2.6 7.0 0.00 0.40 0.10 67 1005.6
20260507125511 55 244 1.7 5.2 0.00 0.40 0.10 70 1005.6
20260507125006 54 173 1.7 5.2 0.00 0.40 0.10 70 1005.7
20260507124526 54 321 0.9 5.2 0.00 0.40 0.10 72 1005.7
20260507124010 54 304 1.7 5.2 0.00 0.40 0.10 73 1005.7
20260507123506 53 217 0.9 6.1 0.00 0.40 0.10 73 1005.8
20260507123031 53 256 1.7 7.0 0.00 0.40 0.10 75 1005.7
20260507122503 52 142 0.9 7.0 0.00 0.40 0.10 76 1005.7
20260507122010 52 5 2.6 7.0 0.00 0.40 0.10 74 1005.8
20260507121520 51 34 1.7 7.8 0.00 0.40 0.10 75 1005.7
20260507121008 51 333 0.9 7.8 0.00 0.40 0.10 78 1005.7
20260507120509 50 84 0.9 3.5 0.00 0.40 0.10 82 1005.7
20260507120021 50 288 0.9 3.5 0.00 0.40 0.10 83 1005.8
20260507115507 49 226 0.9 4.3 0.00 0.40 0.10 83 1005.9
20260507115006 49 244 0.9 4.3 0.00 0.40 0.10 85 1005.9
20260507114521 48 298 0.9 4.3 0.00 0.40 0.10 85 1005.8
20260507114006 48 288 0.0 3.5 0.00 0.40 0.10 88 1005.7
20260507113511 47 290 0.0 3.5 0.00 0.40 0.10 89 1005.7
20260507113023 47 360 0.9 5.2 0.00 0.40 0.10 89 1005.6
20260507112506 47 11 1.7 5.2 0.00 0.40 0.10 89 1005.8
20260507112010 47 247 0.0 1.7 0.00 0.40 0.10 91 1005.9
20260507111522 47 281 0.0 0.9 0.00 0.40 0.10 92 1006.0
20260507111006 47 238 0.0 1.7 0.00 0.40 0.10 92 1006.1
20260507110510 46 238 0.0 1.7 0.00 0.40 0.10 92 1006.3
20260507110022 46 319 0.0 2.6 0.00 0.40 0.10 94 1006.1
20260507105509 46 17 0.9 2.6 0.00 0.40 0.10 94 1005.6
20260507105007 46 352 0.9 1.7 0.00 0.40 0.10 94 1005.8
20260507104523 46 259 0.0 1.7 0.00 0.40 0.10 94 1006.4
20260507104010 46 244 0.9 1.7 0.00 0.40 0.10 93 1006.5
20260507103512 45 350 0.0 1.7 0.00 0.40 0.10 93 1005.9
20260507103029 45 352 0.0 1.7 0.00 0.40 0.10 93 1006.1
20260507102507 45 246 0.0 1.7 0.00 0.40 0.10 92 1006.3
20260507102008 45 242 0.0 1.7 0.00 0.40 0.10 92 1006.2
20260507101533 45 324 0.0 3.5 0.00 0.40 0.10 92 1005.8
20260507101007 45 229 0.0 3.5 0.00 0.40 0.10 92 1006.1
20260507100509 45 342 0.0 0.9 0.00 0.40 0.10 93 1005.9
20260507100025 45 274 0.0 1.7 0.00 0.40 0.10 93 1006.1
20260507095507 45 274 0.0 1.7 0.00 0.40 0.10 92 1006.1
20260507095010 45 310 0.0 1.7 0.00 0.40 0.10 92 1005.7
20260507094509 45 314 0.0 3.5 0.00 0.40 0.10 92 1005.6
20260507094005 45 338 0.9 3.5 0.00 0.40 0.10 90 1005.3
20260507093506 45 215 0.0 3.5 0.00 0.40 0.10 91 1005.7
20260507093014 45 270 0.0 4.3 0.00 0.40 0.10 91 1005.6
20260507092503 45 34 0.9 4.3 0.00 0.40 0.10 90 1005.0
20260507092004 46 263 0.0 4.3 0.00 0.40 0.10 91 1005.2
20260507091518 46 36 0.9 4.3 0.00 0.40 0.10 91 1005.2
20260507091003 46 300 0.0 6.1 0.00 0.40 0.10 91 1005.3
20260507090503 46 256 0.9 6.1 0.00 0.40 0.10 91 1005.6
20260507090017 46 302 0.9 3.5 0.00 0.40 0.10 90 1005.6
20260507085503 46 346 0.9 3.5 0.00 0.40 0.10 89 1005.6
20260507085004 46 16 0.9 3.5 0.00 0.40 0.10 89 1005.4
20260507084520 46 50 0.0 4.3 0.00 0.40 0.10 90 1005.8
20260507084004 46 325 0.9 4.3 0.00 0.40 0.10 90 1005.9
20260507083505 47 268 0.0 3.5 0.00 0.40 0.10 90 1005.7
20260507083020 47 286 1.7 7.0 0.00 0.40 0.10 89 1005.5
20260507082504 47 30 1.7 7.0 0.00 0.40 0.10 89 1005.2
20260507082005 47 298 1.7 7.0 0.00 0.40 0.10 90 1004.9
20260507081520 47 322 0.9 7.0 0.00 0.40 0.10 90 1005.1
20260507081003 47 341 1.7 7.0 0.00 0.40 0.10 90 1005.2
20260507080507 47 273 0.9 7.8 0.00 0.40 0.10 92 1005.5
20260507080019 48 96 1.7 7.8 0.00 0.40 0.10 91 1005.3
20260507075503 48 30 1.7 6.1 0.00 0.40 0.10 92 1005.0
20260507075006 48 352 0.9 3.5 0.00 0.40 0.10 93 1005.0
20260507074523 48 339 0.9 2.6 0.00 0.40 0.10 94 1004.8
20260507074001 48 360 0.0 3.5 0.00 0.40 0.10 94 1004.9
20260507073506 48 316 0.9 3.5 0.00 0.40 0.10 94 1005.0
20260507073024 48 333 0.9 2.6 0.00 0.40 0.10 95 1004.8
20260507072503 48 300 0.0 4.3 0.00 0.40 0.10 95 1004.9
20260507072007 48 236 0.9 4.3 0.00 0.40 0.10 95 1004.9
20260507071525 48 284 0.0 0.9 0.00 0.40 0.10 95 1004.7
20260507071002 48 352 0.0 1.7 0.00 0.40 0.10 95 1004.8
20260507070507 48 326 0.0 3.5 0.00 0.40 0.10 95 1004.8
20260507070008 49 306 0.0 3.5 0.00 0.40 0.10 95 1004.6
20260507065505 49 329 0.0 3.5 0.00 0.40 0.10 95 1004.6
20260507065013 49 360 0.0 1.7 0.00 0.40 0.10 95 1004.6
20260507064503 49 360 0.0 1.7 0.00 0.40 0.10 95 1004.4
20260507064003 49 338 0.0 1.7 0.00 0.40 0.10 95 1004.4
20260507063507 49 25 0.0 1.7 0.00 0.40 0.10 94 1004.3
20260507063004 49 35 0.0 2.6 0.00 0.40 0.10 94 1004.5
20260507062503 49 281 0.0 2.6 0.00 0.40 0.10 95 1004.5
20260507062006 49 288 0.0 3.5 0.00 0.40 0.10 95 1004.2
20260507061507 49 331 0.0 3.5 0.00 0.40 0.10 94 1004.1
20260507061006 49 13 0.0 2.6 0.01 0.40 0.10 94 1004.0
20260507060505 49 273 0.0 3.5 0.01 0.40 0.10 94 1004.2
20260507060013 49 286 0.9 3.5 0.01 0.40 0.10 94 1004.2
20260507055506 49 17 0.9 2.6 0.01 0.40 0.10 94 1004.0
20260507055011 50 40 1.7 7.8 0.01 0.40 0.10 94 1004.1
20260507054506 50 360 0.9 7.8 0.01 0.40 0.10 94 1004.2
20260507054007 50 326 1.7 7.0 0.01 0.40 0.10 94 1003.9
20260507053508 50 17 0.9 6.1 0.02 0.40 0.10 94 1004.3
20260507053010 51 340 1.7 8.7 0.02 0.40 0.10 94 1004.2
20260507052506 51 167 0.9 10.4 0.04 0.40 0.10 95 1004.1
20260507052012 51 9 2.6 10.4 0.05 0.40 0.10 95 1004.2
20260507051513 51 40 3.5 8.7 0.08 0.40 0.10 95 1003.9
20260507051008 51 28 0.9 5.2 0.09 0.39 0.09 96 1004.0
20260507050514 52 71 1.7 7.0 0.09 0.39 0.09 95 1004.2
20260507050021 52 325 1.7 7.0 0.09 0.39 0.09 95 1004.0
20260507045507 52 352 0.9 5.2 0.09 0.39 0.09 96 1003.8
20260507045007 52 17 0.9 5.2 0.09 0.39 0.09 96 1003.7
20260507044511 52 5 1.7 5.2 0.09 0.39 0.09 96 1003.8
20260507044010 52 9 0.9 5.2 0.09 0.39 0.09 96 1003.9
20260507043507 52 324 0.9 7.0 0.08 0.38 0.08 96 1003.8
20260507043014 52 5 1.7 7.0 0.08 0.38 0.08 96 1003.6
20260507042508 53 42 1.7 7.8 0.06 0.36 0.06 97 1003.9
20260507042003 52 49 2.6 7.8 0.05 0.35 0.05 97 1003.9
20260507041514 52 342 2.6 6.1 0.02 0.32 0.02 96 1004.0
20260507041008 52 14 1.7 3.5 0.00 0.30 0.00 96 1003.9
20260507040507 52 254 0.9 1.7 0.00 0.30 0.00 96 1003.4
20260507040016 52 244 0.0 1.7 0.00 0.30 0.00 96 1003.3
20260507035508 52 240 0.0 2.6 0.00 0.30 0.30 96 1003.1
20260507035008 52 205 0.0 2.6 0.00 0.30 0.30 96 1003.1
20260507034520 52 150 0.0 0.9 0.00 0.30 0.30 96 1002.9
20260507034010 52 163 0.0 0.9 0.00 0.30 0.30 96 1002.9
20260507033503 52 163 0.0 1.7 0.00 0.30 0.30 96 1003.0
20260507033021 52 99 0.0 1.7 0.00 0.30 0.30 96 1002.7
20260507032513 52 99 0.0 0.9 0.00 0.30 0.30 96 1002.8
20260507032006 52 99 0.0 0.9 0.00 0.30 0.30 96 1002.9
20260507031521 51 99 0.0 0.9 0.00 0.30 0.30 96 1003.0
20260507031014 51 83 0.0 0.9 0.00 0.30 0.30 96 1002.9
20260507030507 51 97 0.0 0.9 0.00 0.30 0.30 96 1003.0
20260507030018 51 97 0.0 0.9 0.00 0.30 0.30 96 1003.0
20260507025508 51 97 0.0 1.7 0.00 0.30 0.30 96 1003.0
20260507025003 51 97 0.0 1.7 0.00 0.30 0.30 96 1003.0
20260507024522 51 46 0.0 1.7 0.01 0.30 0.30 96 1003.0